Time,TemperatureF,DewpointF,PressureIn,WindDirection,WindDirectionDegrees,WindSpeedMPH,WindSpeedGustMPH,Humidity,HourlyPrecipIn,Conditions,Clouds,dailyrainin,SoftwareType,DateUTC
2013-02-22 00:00:00,38.9,37.3,29.72,SSE,157,0.0,5.0,94,0.01,,---,0.84,VWS V14.01,2013-02-22 06:00:00,
2013-02-22 00:05:00,38.9,37.3,29.71,SE,146,2.0,3.0,94,0.00,,---,0.00,VWS V14.01,2013-02-22 06:05:00,
2013-02-22 00:10:00,39.1,37.5,29.71,SE,138,3.0,4.0,94,0.00,,---,0.00,VWS V14.01,2013-02-22 06:10:00,
2013-02-22 00:15:00,39.1,37.5,29.71,SE,132,2.0,6.0,94,0.01,,---,0.01,VWS V14.01,2013-02-22 06:15:00,
2013-02-22 00:20:00,39.2,37.6,29.70,SE,133,2.0,6.0,94,0.01,,---,0.01,VWS V14.01,2013-02-22 06:20:00,
2013-02-22 00:25:00,39.2,37.6,29.70,SSE,155,0.0,6.0,94,0.01,,---,0.01,VWS V14.01,2013-02-22 06:25:00,
2013-02-22 00:30:00,39.2,37.6,29.70,SE,135,0.0,6.0,94,0.01,,---,0.01,VWS V14.01,2013-02-22 06:30:00,
2013-02-22 00:35:00,39.3,37.7,29.70,SSE,149,0.0,3.0,94,0.01,,---,0.01,VWS V14.01,2013-02-22 06:35:00,
2013-02-22 00:40:00,39.3,37.7,29.70,SE,136,0.0,4.0,94,0.01,,---,0.01,VWS V14.01,2013-02-22 06:40:00,
2013-02-22 00:45:00,39.3,37.7,29.70,SE,124,0.0,5.0,94,0.01,,---,0.01,VWS V14.01,2013-02-22 06:45:00,
2013-02-22 00:50:00,39.4,37.8,29.70,South,184,0.0,5.0,94,0.01,,---,0.01,VWS V14.01,2013-02-22 06:50:00,
2013-02-22 00:55:00,39.4,37.8,29.70,South,169,0.0,6.0,94,0.01,,---,0.01,VWS V14.01,2013-02-22 06:55:00,
2013-02-22 01:00:00,39.5,37.9,29.70,ESE,106,0.0,6.0,94,0.01,,---,0.01,VWS V14.01,2013-02-22 07:00:00,
2013-02-22 01:05:00,39.5,37.9,29.71,SSE,150,0.0,1.0,94,0.01,,---,0.01,VWS V14.01,2013-02-22 07:05:00,
2013-02-22 01:10:00,39.6,38.0,29.71,South,173,0.0,5.0,94,0.01,,---,0.01,VWS V14.01,2013-02-22 07:10:00,
2013-02-22 01:15:00,39.8,38.2,29.71,South,172,0.0,5.0,94,0.01,,---,0.01,VWS V14.01,2013-02-22 07:15:00,
2013-02-22 01:20:00,39.9,38.3,29.72,SW,222,0.0,5.0,94,0.01,,---,0.01,VWS V14.01,2013-02-22 07:20:00,
2013-02-22 01:25:00,40.0,38.4,29.72,SW,219,2.0,5.0,94,0.01,,---,0.01,VWS V14.01,2013-02-22 07:25:00,
2013-02-22 01:30:00,40.3,39.0,29.72,SSW,207,0.0,5.0,95,0.01,,---,0.01,VWS V14.01,2013-02-22 07:30:00,
2013-02-22 01:35:00,40.4,38.8,29.72,SSE,163,3.0,5.0,94,0.00,,---,0.01,VWS V14.01,2013-02-22 07:35:00,
2013-02-22 01:40:00,40.5,38.9,29.72,South,173,0.0,6.0,94,0.00,,---,0.01,VWS V14.01,2013-02-22 07:40:00,
2013-02-22 01:45:00,40.6,39.0,29.72,SSE,163,4.0,6.0,94,0.00,,---,0.01,VWS V14.01,2013-02-22 07:45:00,
2013-02-22 01:50:00,40.7,39.4,29.72,South,170,0.0,6.0,95,0.00,,---,0.01,VWS V14.01,2013-02-22 07:50:00,
2013-02-22 01:55:00,40.8,39.5,29.72,West,273,0.0,6.0,95,0.00,,---,0.01,VWS V14.01,2013-02-22 07:55:00,
2013-02-22 02:00:00,40.9,39.6,29.72,West,262,1.0,6.0,95,0.00,,---,0.01,VWS V14.01,2013-02-22 08:00:00,
2013-02-22 02:05:00,41.1,39.8,29.73,SW,230,0.0,3.0,95,0.00,,---,0.01,VWS V14.01,2013-02-22 08:05:00,
2013-02-22 02:10:00,41.3,40.0,29.73,SW,233,2.0,6.0,95,0.00,,---,0.01,VWS V14.01,2013-02-22 08:10:00,
2013-02-22 02:15:00,41.5,40.2,29.73,WSW,255,6.0,6.0,95,0.00,,---,0.01,VWS V14.01,2013-02-22 08:15:00,
2013-02-22 02:20:00,41.8,40.5,29.74,West,267,1.0,6.0,95,0.00,,---,0.01,VWS V14.01,2013-02-22 08:20:00,
2013-02-22 02:25:00,41.9,40.6,29.74,SSW,200,0.0,6.0,95,0.00,,---,0.01,VWS V14.01,2013-02-22 08:25:00,
2013-02-22 02:30:00,42.0,40.7,29.74,WSW,238,0.0,6.0,95,0.00,,---,0.01,VWS V14.01,2013-02-22 08:30:00,
2013-02-22 02:35:00,42.0,40.7,29.73,SW,219,0.0,4.0,95,0.00,,---,0.01,VWS V14.01,2013-02-22 08:35:00,
2013-02-22 02:40:00,42.0,40.7,29.73,WSW,244,2.0,4.0,95,0.00,,---,0.01,VWS V14.01,2013-02-22 08:40:00,
2013-02-22 02:45:00,42.0,40.7,29.73,WSW,239,4.0,6.0,95,0.00,,---,0.01,VWS V14.01,2013-02-22 08:45:00,
2013-02-22 02:50:00,42.0,40.7,29.73,SW,219,2.0,10.0,95,0.00,,---,0.01,VWS V14.01,2013-02-22 08:50:00,
2013-02-22 02:55:00,42.0,40.7,29.73,WSW,238,5.0,12.0,95,0.00,,---,0.01,VWS V14.01,2013-02-22 08:55:00,
2013-02-22 03:00:00,41.9,40.6,29.73,WNW,300,6.0,12.0,95,0.00,,---,0.01,VWS V14.01,2013-02-22 09:00:00,
2013-02-22 03:05:00,41.8,40.5,29.74,WSW,254,4.0,9.0,95,0.00,,---,0.01,VWS V14.01,2013-02-22 09:05:00,
2013-02-22 03:10:00,41.7,40.1,29.74,WSW,254,7.0,10.0,94,0.00,,---,0.01,VWS V14.01,2013-02-22 09:10:00,
2013-02-22 03:15:00,41.7,40.1,29.74,WSW,242,2.0,10.0,94,0.00,,---,0.01,VWS V14.01,2013-02-22 09:15:00,
2013-02-22 03:20:00,41.7,40.1,29.74,WSW,239,6.0,10.0,94,0.00,,---,0.01,VWS V14.01,2013-02-22 09:20:00,
2013-02-22 03:25:00,41.7,40.1,29.74,WSW,248,4.0,10.0,94,0.00,,---,0.01,VWS V14.01,2013-02-22 09:25:00,
2013-02-22 03:30:00,41.7,40.1,29.74,SW,230,2.0,10.0,94,0.00,,---,0.01,VWS V14.01,2013-02-22 09:30:00,
2013-02-22 03:35:00,41.6,40.0,29.74,SW,226,0.0,5.0,94,0.00,,---,0.01,VWS V14.01,2013-02-22 09:35:00,
2013-02-22 03:40:00,41.6,40.0,29.74,SW,229,4.0,6.0,94,0.00,,---,0.01,VWS V14.01,2013-02-22 09:40:00,
2013-02-22 03:45:00,41.4,39.8,29.74,SW,215,3.0,7.0,94,0.00,,---,0.01,VWS V14.01,2013-02-22 09:45:00,
2013-02-22 03:50:00,41.3,39.7,29.74,SW,234,4.0,9.0,94,0.00,,---,0.01,VWS V14.01,2013-02-22 09:50:00,
2013-02-22 03:55:00,41.3,39.7,29.74,SW,229,2.0,9.0,94,0.00,,---,0.01,VWS V14.01,2013-02-22 09:55:00,
2013-02-22 04:00:00,41.1,39.2,29.74,West,263,5.0,9.0,93,0.00,,---,0.01,VWS V14.01,2013-02-22 10:00:00,
2013-02-22 04:05:00,41.1,39.2,29.75,WSW,250,3.0,6.0,93,0.00,,---,0.01,VWS V14.01,2013-02-22 10:05:00,
2013-02-22 04:10:00,41.1,39.2,29.75,West,261,4.0,6.0,93,0.00,,---,0.01,VWS V14.01,2013-02-22 10:10:00,
2013-02-22 04:15:00,40.9,39.0,29.75,SW,215,2.0,6.0,93,0.00,,---,0.01,VWS V14.01,2013-02-22 10:15:00,
2013-02-22 04:20:00,40.9,39.0,29.76,WSW,253,3.0,9.0,93,0.00,,---,0.01,VWS V14.01,2013-02-22 10:20:00,
2013-02-22 04:25:00,40.9,39.0,29.76,West,262,2.0,9.0,93,0.00,,---,0.01,VWS V14.01,2013-02-22 10:25:00,
2013-02-22 04:30:00,40.8,38.7,29.76,WSW,237,3.0,9.0,92,0.00,,---,0.01,VWS V14.01,2013-02-22 10:30:00,
2013-02-22 04:35:00,40.8,38.7,29.78,WNW,292,4.0,6.0,92,0.00,,---,0.01,VWS V14.01,2013-02-22 10:35:00,
2013-02-22 04:40:00,40.7,38.6,29.78,West,277,4.0,6.0,92,0.00,,---,0.01,VWS V14.01,2013-02-22 10:40:00,
2013-02-22 04:45:00,40.6,38.5,29.78,WSW,252,5.0,7.0,92,0.00,,---,0.01,VWS V14.01,2013-02-22 10:45:00,
2013-02-22 04:50:00,40.5,38.4,29.79,WNW,284,4.0,10.0,92,0.00,,---,0.01,VWS V14.01,2013-02-22 10:50:00,
2013-02-22 04:55:00,40.4,38.3,29.79,WSW,245,4.0,10.0,92,0.00,,---,0.01,VWS V14.01,2013-02-22 10:55:00,
2013-02-22 05:00:00,40.4,38.3,29.79,West,265,4.0,10.0,92,0.00,,---,0.01,VWS V14.01,2013-02-22 11:00:00,
2013-02-22 05:05:00,40.2,38.1,29.80,WNW,284,5.0,16.0,92,0.00,,---,0.01,VWS V14.01,2013-02-22 11:05:00,
2013-02-22 05:10:00,40.2,38.1,29.80,West,262,3.0,16.0,92,0.00,,---,0.01,VWS V14.01,2013-02-22 11:10:00,
2013-02-22 05:15:00,40.0,37.9,29.80,WSW,248,4.0,16.0,92,0.00,,---,0.01,VWS V14.01,2013-02-22 11:15:00,
2013-02-22 05:20:00,39.9,37.5,29.81,West,265,10.0,16.0,91,0.00,,---,0.01,VWS V14.01,2013-02-22 11:20:00,
2013-02-22 05:25:00,39.8,37.4,29.81,WSW,240,11.0,16.0,91,0.00,,---,0.01,VWS V14.01,2013-02-22 11:25:00,
2013-02-22 05:30:00,39.7,37.0,29.81,WSW,242,10.0,16.0,90,0.00,,---,0.01,VWS V14.01,2013-02-22 11:30:00,
2013-02-22 05:35:00,39.5,36.8,29.81,WSW,250,4.0,11.0,90,0.00,,---,0.01,VWS V14.01,2013-02-22 11:35:00,
2013-02-22 05:40:00,39.4,36.7,29.81,WSW,249,3.0,11.0,90,0.00,,---,0.01,VWS V14.01,2013-02-22 11:40:00,
2013-02-22 05:45:00,39.4,36.7,29.81,SW,230,5.0,11.0,90,0.00,,---,0.01,VWS V14.01,2013-02-22 11:45:00,
2013-02-22 05:50:00,39.3,36.6,29.82,SW,232,8.0,11.0,90,0.00,,---,0.01,VWS V14.01,2013-02-22 11:50:00,
2013-02-22 05:55:00,39.1,36.4,29.82,WSW,258,6.0,11.0,90,0.00,,---,0.01,VWS V14.01,2013-02-22 11:55:00,
2013-02-22 06:00:00,38.9,36.2,29.82,West,259,2.0,11.0,90,0.00,,---,0.01,VWS V14.01,2013-02-22 12:00:00,
2013-02-22 06:05:00,38.9,36.2,29.83,SW,231,3.0,6.0,90,0.00,,---,0.01,VWS V14.01,2013-02-22 12:05:00,
2013-02-22 06:10:00,38.9,36.2,29.83,West,261,5.0,10.0,90,0.00,,---,0.01,VWS V14.01,2013-02-22 12:10:00,
2013-02-22 06:15:00,38.9,36.2,29.83,WSW,254,3.0,10.0,90,0.00,,---,0.01,VWS V14.01,2013-02-22 12:15:00,
2013-02-22 06:20:00,38.9,36.2,29.83,West,270,3.0,10.0,90,0.00,,---,0.01,VWS V14.01,2013-02-22 12:20:00,
2013-02-22 06:25:00,38.8,36.1,29.83,SW,236,6.0,11.0,90,0.00,,---,0.01,VWS V14.01,2013-02-22 12:25:00,
2013-02-22 06:30:00,38.7,35.7,29.83,SW,236,4.0,12.0,89,0.00,,---,0.01,VWS V14.01,2013-02-22 12:30:00,
2013-02-22 06:35:00,38.7,35.7,29.83,SW,232,5.0,10.0,89,0.00,,---,0.01,VWS V14.01,2013-02-22 12:35:00,
2013-02-22 06:40:00,38.6,35.6,29.83,WSW,247,5.0,10.0,89,0.00,,---,0.01,VWS V14.01,2013-02-22 12:40:00,
2013-02-22 06:45:00,38.6,35.6,29.83,WSW,252,5.0,10.0,89,0.00,,---,0.01,VWS V14.01,2013-02-22 12:45:00,
2013-02-22 06:50:00,38.6,35.6,29.84,WSW,249,2.0,10.0,89,0.00,,---,0.01,VWS V14.01,2013-02-22 12:50:00,
2013-02-22 06:55:00,38.5,35.8,29.84,WSW,246,3.0,10.0,90,0.00,,---,0.01,VWS V14.01,2013-02-22 12:55:00,
2013-02-22 07:00:00,38.5,35.8,29.84,SW,228,2.0,10.0,90,0.00,,---,0.01,VWS V14.01,2013-02-22 13:00:00,
2013-02-22 07:05:00,38.4,35.7,29.85,SW,216,3.0,6.0,90,0.00,,---,0.01,VWS V14.01,2013-02-22 13:05:00,
2013-02-22 07:10:00,38.4,35.7,29.85,WSW,253,2.0,6.0,90,0.00,,---,0.01,VWS V14.01,2013-02-22 13:10:00,
2013-02-22 07:15:00,38.4,35.7,29.85,SW,225,0.0,6.0,90,0.00,,---,0.01,VWS V14.01,2013-02-22 13:15:00,
2013-02-22 07:20:00,38.3,35.6,29.85,WSW,251,1.0,7.0,90,0.00,,---,0.01,VWS V14.01,2013-02-22 13:20:00,
2013-02-22 07:25:00,38.3,35.6,29.85,WSW,252,7.0,7.0,90,0.00,,---,0.01,VWS V14.01,2013-02-22 13:25:00,
2013-02-22 07:30:00,38.3,35.3,29.85,West,273,2.0,7.0,89,0.00,,---,0.01,VWS V14.01,2013-02-22 13:30:00,
2013-02-22 07:35:00,38.3,35.3,29.86,WSW,258,2.0,6.0,89,0.00,,---,0.01,VWS V14.01,2013-02-22 13:35:00,
2013-02-22 07:40:00,38.3,35.3,29.86,WSW,242,2.0,6.0,89,0.00,,---,0.01,VWS V14.01,2013-02-22 13:40:00,
2013-02-22 07:45:00,38.4,35.5,29.86,WSW,243,3.0,6.0,89,0.00,,---,0.01,VWS V14.01,2013-02-22 13:45:00,
2013-02-22 07:50:00,38.4,35.5,29.86,WSW,238,2.0,6.0,89,0.00,,---,0.01,VWS V14.01,2013-02-22 13:50:00,
2013-02-22 07:55:00,38.4,35.5,29.86,SW,234,5.0,7.0,89,0.00,,---,0.01,VWS V14.01,2013-02-22 13:55:00,
2013-02-22 08:00:00,38.4,35.5,29.86,West,269,3.0,7.0,89,0.00,,---,0.01,VWS V14.01,2013-02-22 14:00:00,
2013-02-22 08:05:00,38.5,35.3,29.87,West,262,6.0,6.0,88,0.00,,---,0.01,VWS V14.01,2013-02-22 14:05:00,
2013-02-22 08:10:00,38.5,35.3,29.87,SW,216,7.0,14.0,88,0.00,,---,0.01,VWS V14.01,2013-02-22 14:10:00,
2013-02-22 08:15:00,38.6,34.8,29.87,SW,227,6.0,14.0,86,0.00,,---,0.01,VWS V14.01,2013-02-22 14:15:00,
2013-02-22 08:20:00,38.9,35.4,29.88,WSW,247,4.0,14.0,87,0.00,,---,0.01,VWS V14.01,2013-02-22 14:20:00,
2013-02-22 08:25:00,39.1,35.3,29.88,SW,234,7.0,14.0,86,0.00,,---,0.01,VWS V14.01,2013-02-22 14:25:00,
2013-02-22 08:30:00,38.9,35.1,29.88,SW,232,4.0,14.0,86,0.00,,---,0.01,VWS V14.01,2013-02-22 14:30:00,
2013-02-22 08:35:00,38.8,35.0,29.88,WSW,244,4.0,7.0,86,0.00,,---,0.01,VWS V14.01,2013-02-22 14:35:00,
2013-02-22 08:40:00,38.9,35.1,29.88,SW,225,4.0,7.0,86,0.00,,---,0.01,VWS V14.01,2013-02-22 14:40:00,
2013-02-22 08:45:00,38.9,35.1,29.88,WSW,237,2.0,7.0,86,0.00,,---,0.01,VWS V14.01,2013-02-22 14:45:00,
2013-02-22 08:50:00,39.0,35.2,29.89,West,261,5.0,7.0,86,0.00,,---,0.01,VWS V14.01,2013-02-22 14:50:00,
2013-02-22 08:55:00,39.0,35.2,29.89,WSW,254,3.0,7.0,86,0.00,,---,0.01,VWS V14.01,2013-02-22 14:55:00,
2013-02-22 09:00:00,39.0,35.2,29.89,SW,224,3.0,8.0,86,0.00,,---,0.01,VWS V14.01,2013-02-22 15:00:00,
2013-02-22 09:05:00,39.1,35.3,29.90,SSW,204,5.0,5.0,86,0.00,,---,0.01,VWS V14.01,2013-02-22 15:05:00,
2013-02-22 09:10:00,39.5,35.7,29.90,SW,214,4.0,9.0,86,0.00,,---,0.01,VWS V14.01,2013-02-22 15:10:00,
2013-02-22 09:15:00,39.6,35.5,29.90,West,278,4.0,9.0,85,0.00,,---,0.01,VWS V14.01,2013-02-22 15:15:00,
2013-02-22 09:20:00,39.7,35.6,29.90,West,261,5.0,9.0,85,0.00,,---,0.01,VWS V14.01,2013-02-22 15:20:00,
2013-02-22 09:25:00,39.8,35.4,29.90,WSW,242,3.0,10.0,84,0.00,,---,0.01,VWS V14.01,2013-02-22 15:25:00,
2013-02-22 09:30:00,40.2,35.8,29.90,West,261,7.0,11.0,84,0.00,,---,0.01,VWS V14.01,2013-02-22 15:30:00,
2013-02-22 09:35:00,40.2,35.5,29.90,WSW,252,4.0,9.0,83,0.00,,---,0.01,VWS V14.01,2013-02-22 15:35:00,
2013-02-22 09:40:00,40.3,35.6,29.90,WSW,249,6.0,11.0,83,0.00,,---,0.01,VWS V14.01,2013-02-22 15:40:00,
2013-02-22 09:45:00,40.3,35.6,29.90,WSW,254,11.0,11.0,83,0.00,,---,0.01,VWS V14.01,2013-02-22 15:45:00,
2013-02-22 09:50:00,40.4,35.3,29.91,West,261,4.0,11.0,82,0.00,,---,0.01,VWS V14.01,2013-02-22 15:50:00,
2013-02-22 09:55:00,40.5,35.5,29.91,WSW,255,3.0,11.0,82,0.00,,---,0.01,VWS V14.01,2013-02-22 15:55:00,
2013-02-22 10:00:00,40.7,35.6,29.91,West,267,7.0,11.0,82,0.00,,---,0.01,VWS V14.01,2013-02-22 16:00:00,
2013-02-22 10:05:00,41.1,36.0,29.90,WSW,248,8.0,13.0,82,0.00,,---,0.01,VWS V14.01,2013-02-22 16:05:00,
2013-02-22 10:10:00,41.1,35.7,29.90,SW,232,8.0,13.0,81,0.00,,---,0.01,VWS V14.01,2013-02-22 16:10:00,
2013-02-22 10:15:00,41.0,35.6,29.90,SW,215,6.0,13.0,81,0.00,,---,0.01,VWS V14.01,2013-02-22 16:15:00,
2013-02-22 10:20:00,41.0,35.6,29.91,WSW,237,5.0,13.0,81,0.00,,---,0.01,VWS V14.01,2013-02-22 16:20:00,
2013-02-22 10:25:00,41.0,35.6,29.91,WSW,246,10.0,13.0,81,0.00,,---,0.01,VWS V14.01,2013-02-22 16:25:00,
2013-02-22 10:30:00,41.1,36.0,29.91,WNW,288,6.0,13.0,82,0.00,,---,0.01,VWS V14.01,2013-02-22 16:30:00,
2013-02-22 10:35:00,41.1,36.0,29.92,WSW,258,3.0,10.0,82,0.00,,---,0.01,VWS V14.01,2013-02-22 16:35:00,
2013-02-22 10:40:00,41.1,36.3,29.92,WSW,255,3.0,10.0,83,0.00,,---,0.01,VWS V14.01,2013-02-22 16:40:00,
2013-02-22 10:45:00,41.0,35.6,29.92,WSW,257,5.0,12.0,81,0.00,,---,0.01,VWS V14.01,2013-02-22 16:45:00,
2013-02-22 10:50:00,40.9,35.5,29.92,West,267,4.0,12.0,81,0.00,,---,0.01,VWS V14.01,2013-02-22 16:50:00,
2013-02-22 10:55:00,41.1,35.7,29.92,West,264,6.0,15.0,81,0.00,,---,0.01,VWS V14.01,2013-02-22 16:55:00,
2013-02-22 11:00:00,41.1,35.4,29.92,SW,216,6.0,15.0,80,0.00,,---,0.01,VWS V14.01,2013-02-22 17:00:00,
2013-02-22 11:05:00,41.1,35.4,29.92,West,269,5.0,13.0,80,0.00,,---,0.01,VWS V14.01,2013-02-22 17:05:00,
2013-02-22 11:10:00,41.4,36.0,29.92,West,274,7.0,13.0,81,0.00,,---,0.01,VWS V14.01,2013-02-22 17:10:00,
2013-02-22 11:15:00,41.5,35.8,29.92,SW,233,4.0,13.0,80,0.00,,---,0.01,VWS V14.01,2013-02-22 17:15:00,
2013-02-22 11:20:00,41.5,35.8,29.92,WSW,239,6.0,13.0,80,0.00,,---,0.01,VWS V14.01,2013-02-22 17:20:00,
2013-02-22 11:25:00,41.9,36.5,29.92,SW,236,3.0,13.0,81,0.00,,---,0.01,VWS V14.01,2013-02-22 17:25:00,
2013-02-22 11:30:00,42.0,36.3,29.92,West,277,3.0,13.0,80,0.00,,---,0.01,VWS V14.01,2013-02-22 17:30:00,
2013-02-22 11:35:00,42.4,36.7,29.92,SW,234,3.0,14.0,80,0.00,,---,0.01,VWS V14.01,2013-02-22 17:35:00,
2013-02-22 11:40:00,43.1,37.4,29.92,West,277,4.0,14.0,80,0.00,,---,0.01,VWS V14.01,2013-02-22 17:40:00,
2013-02-22 11:45:00,43.1,36.7,29.92,WSW,252,10.0,14.0,78,0.00,,---,0.01,VWS V14.01,2013-02-22 17:45:00,
2013-02-22 11:50:00,42.7,36.3,29.91,WSW,240,3.0,14.0,78,0.00,,---,0.01,VWS V14.01,2013-02-22 17:50:00,
2013-02-22 11:55:00,42.4,36.0,29.91,WNW,296,11.0,14.0,78,0.00,,---,0.01,VWS V14.01,2013-02-22 17:55:00,
2013-02-22 12:00:00,42.4,36.4,29.91,SW,217,5.0,14.0,79,0.00,,---,0.01,VWS V14.01,2013-02-22 18:00:00,
2013-02-22 12:05:00,42.3,36.6,29.90,West,264,4.0,7.0,80,0.00,,---,0.01,VWS V14.01,2013-02-22 18:05:00,
2013-02-22 12:10:00,42.3,36.6,29.90,WNW,294,5.0,8.0,80,0.00,,---,0.01,VWS V14.01,2013-02-22 18:10:00,
2013-02-22 12:15:00,42.7,37.3,29.90,WSW,239,4.0,8.0,81,0.00,,---,0.01,VWS V14.01,2013-02-22 18:15:00,
2013-02-22 12:20:00,42.7,37.0,29.90,West,271,6.0,8.0,80,0.00,,---,0.01,VWS V14.01,2013-02-22 18:20:00,
2013-02-22 12:25:00,43.1,37.7,29.90,WNW,286,10.0,10.0,81,0.00,,---,0.01,VWS V14.01,2013-02-22 18:25:00,
2013-02-22 12:30:00,42.9,36.8,29.90,SW,229,4.0,10.0,79,0.00,,---,0.01,VWS V14.01,2013-02-22 18:30:00,
2013-02-22 12:35:00,42.8,37.1,29.90,WNW,287,4.0,6.0,80,0.00,,---,0.01,VWS V14.01,2013-02-22 18:35:00,
2013-02-22 12:40:00,42.8,36.8,29.90,SW,227,5.0,10.0,79,0.00,,---,0.01,VWS V14.01,2013-02-22 18:40:00,
2013-02-22 12:45:00,43.0,37.3,29.90,SSW,199,2.0,10.0,80,0.00,,---,0.01,VWS V14.01,2013-02-22 18:45:00,
2013-02-22 12:50:00,43.1,37.0,29.89,WSW,237,2.0,10.0,79,0.00,,---,0.01,VWS V14.01,2013-02-22 18:50:00,
2013-02-22 12:55:00,42.9,36.8,29.89,WSW,239,4.0,10.0,79,0.00,,---,0.01,VWS V14.01,2013-02-22 18:55:00,
2013-02-22 13:00:00,42.9,37.2,29.89,SW,217,4.0,10.0,80,0.00,,---,0.01,VWS V14.01,2013-02-22 19:00:00,
2013-02-22 13:05:00,42.9,37.2,29.89,SW,234,7.0,11.0,80,0.00,,---,0.01,VWS V14.01,2013-02-22 19:05:00,
2013-02-22 13:10:00,42.6,36.5,29.89,SW,223,5.0,11.0,79,0.00,,---,0.01,VWS V14.01,2013-02-22 19:10:00,
2013-02-22 13:15:00,42.6,36.9,29.89,SW,221,2.0,11.0,80,0.00,,---,0.01,VWS V14.01,2013-02-22 19:15:00,
2013-02-22 13:20:00,42.5,36.8,29.89,SW,223,4.0,12.0,80,0.00,,---,0.01,VWS V14.01,2013-02-22 19:20:00,
2013-02-22 13:25:00,42.3,36.9,29.89,West,264,8.0,12.0,81,0.00,,---,0.01,VWS V14.01,2013-02-22 19:25:00,
2013-02-22 13:30:00,42.4,37.0,29.89,WSW,257,5.0,12.0,81,0.00,,---,0.01,VWS V14.01,2013-02-22 19:30:00,
2013-02-22 13:35:00,42.8,37.4,29.89,SW,232,6.0,6.0,81,0.00,,---,0.01,VWS V14.01,2013-02-22 19:35:00,
2013-02-22 13:40:00,42.8,37.1,29.89,WSW,250,2.0,9.0,80,0.00,,---,0.01,VWS V14.01,2013-02-22 19:40:00,
2013-02-22 13:45:00,43.1,37.7,29.89,SSW,204,0.0,9.0,81,0.00,,---,0.01,VWS V14.01,2013-02-22 19:45:00,
2013-02-22 13:50:00,43.3,37.6,29.89,SW,230,2.0,10.0,80,0.00,,---,0.01,VWS V14.01,2013-02-22 19:50:00,
2013-02-22 13:55:00,43.4,37.7,29.89,WSW,248,10.0,10.0,80,0.00,,---,0.01,VWS V14.01,2013-02-22 19:55:00,
2013-02-22 14:00:00,43.2,37.5,29.89,SW,224,6.0,11.0,80,0.00,,---,0.01,VWS V14.01,2013-02-22 20:00:00,
2013-02-22 14:05:00,43.1,37.4,29.88,WNW,300,6.0,12.0,80,0.00,,---,0.01,VWS V14.01,2013-02-22 20:05:00,
2013-02-22 14:10:00,43.4,37.7,29.88,WNW,284,11.0,12.0,80,0.00,,---,0.01,VWS V14.01,2013-02-22 20:10:00,
2013-02-22 14:15:00,43.5,37.4,29.88,SW,225,4.0,12.0,79,0.00,,---,0.01,VWS V14.01,2013-02-22 20:15:00,
2013-02-22 14:20:00,43.5,36.8,29.88,WSW,239,4.0,12.0,77,0.00,,---,0.01,VWS V14.01,2013-02-22 20:20:00,
2013-02-22 14:25:00,43.4,36.7,29.88,WSW,243,6.0,12.0,77,0.00,,---,0.01,VWS V14.01,2013-02-22 20:25:00,
2013-02-22 14:30:00,42.9,36.5,29.88,SW,223,5.0,14.0,78,0.00,,---,0.01,VWS V14.01,2013-02-22 20:30:00,
2013-02-22 14:35:00,42.7,36.7,29.88,WNW,284,3.0,12.0,79,0.00,,---,0.01,VWS V14.01,2013-02-22 20:35:00,
2013-02-22 14:40:00,42.5,36.5,29.88,SW,235,5.0,13.0,79,0.00,,---,0.01,VWS V14.01,2013-02-22 20:40:00,
2013-02-22 14:45:00,42.5,36.5,29.88,West,270,4.0,13.0,79,0.00,,---,0.01,VWS V14.01,2013-02-22 20:45:00,
2013-02-22 14:50:00,42.6,36.9,29.88,SW,223,5.0,13.0,80,0.00,,---,0.01,VWS V14.01,2013-02-22 20:50:00,
2013-02-22 14:55:00,42.6,36.5,29.88,West,275,6.0,13.0,79,0.00,,---,0.01,VWS V14.01,2013-02-22 20:55:00,
2013-02-22 15:00:00,42.4,36.4,29.88,West,266,8.0,13.0,79,0.00,,---,0.01,VWS V14.01,2013-02-22 21:00:00,
2013-02-22 15:05:00,42.3,36.3,29.88,WSW,251,5.0,12.0,79,0.00,,---,0.01,VWS V14.01,2013-02-22 21:05:00,
2013-02-22 15:10:00,42.3,36.3,29.88,WSW,257,4.0,13.0,79,0.00,,---,0.01,VWS V14.01,2013-02-22 21:10:00,
2013-02-22 15:15:00,42.2,36.2,29.88,WSW,237,5.0,13.0,79,0.00,,---,0.01,VWS V14.01,2013-02-22 21:15:00,
2013-02-22 15:20:00,42.0,36.0,29.88,South,188,5.0,13.0,79,0.00,,---,0.01,VWS V14.01,2013-02-22 21:20:00,
2013-02-22 15:25:00,42.0,36.0,29.88,West,260,6.0,13.0,79,0.00,,---,0.01,VWS V14.01,2013-02-22 21:25:00,
2013-02-22 15:30:00,41.9,35.9,29.88,WNW,282,5.0,13.0,79,0.00,,---,0.01,VWS V14.01,2013-02-22 21:30:00,
2013-02-22 15:35:00,41.8,36.1,29.88,West,267,3.0,10.0,80,0.00,,---,0.01,VWS V14.01,2013-02-22 21:35:00,
2013-02-22 15:40:00,42.0,36.3,29.88,West,264,4.0,10.0,80,0.00,,---,0.01,VWS V14.01,2013-02-22 21:40:00,
2013-02-22 15:45:00,42.1,36.1,29.88,WSW,243,4.0,10.0,79,0.00,,---,0.01,VWS V14.01,2013-02-22 21:45:00,
2013-02-22 15:50:00,42.2,36.2,29.88,West,261,4.0,10.0,79,0.01,,---,0.02,VWS V14.01,2013-02-22 21:50:00,
2013-02-22 15:55:00,42.4,36.4,29.88,WSW,240,3.0,10.0,79,0.01,,---,0.02,VWS V14.01,2013-02-22 21:55:00,
2013-02-22 16:00:00,42.2,35.8,29.88,SW,231,6.0,10.0,78,0.01,,---,0.02,VWS V14.01,2013-02-22 22:00:00,
2013-02-22 16:05:00,42.0,35.7,29.88,West,259,5.0,10.0,78,0.01,,---,0.02,VWS V14.01,2013-02-22 22:05:00,
2013-02-22 16:10:00,41.8,35.5,29.88,WSW,250,3.0,10.0,78,0.01,,---,0.02,VWS V14.01,2013-02-22 22:10:00,
2013-02-22 16:15:00,41.6,35.3,29.88,West,261,5.0,10.0,78,0.01,,---,0.02,VWS V14.01,2013-02-22 22:15:00,
2013-02-22 16:20:00,41.6,35.6,29.88,WSW,257,2.0,10.0,79,0.01,,---,0.02,VWS V14.01,2013-02-22 22:20:00,
2013-02-22 16:25:00,41.7,35.7,29.88,WSW,241,5.0,10.0,79,0.01,,---,0.02,VWS V14.01,2013-02-22 22:25:00,
2013-02-22 16:30:00,41.6,35.6,29.88,WSW,249,4.0,10.0,79,0.01,,---,0.02,VWS V14.01,2013-02-22 22:30:00,
2013-02-22 16:35:00,41.5,35.5,29.88,West,267,0.0,8.0,79,0.01,,---,0.02,VWS V14.01,2013-02-22 22:35:00,
2013-02-22 16:40:00,41.6,35.9,29.88,WSW,250,3.0,8.0,80,0.01,,---,0.02,VWS V14.01,2013-02-22 22:40:00,
2013-02-22 16:45:00,41.4,35.4,29.88,WSW,248,6.0,9.0,79,0.01,,---,0.02,VWS V14.01,2013-02-22 22:45:00,
2013-02-22 16:50:00,41.4,35.7,29.88,WSW,246,4.0,9.0,80,0.01,,---,0.02,VWS V14.01,2013-02-22 22:50:00,
2013-02-22 16:55:00,41.4,35.4,29.88,WSW,246,3.0,9.0,79,0.01,,---,0.02,VWS V14.01,2013-02-22 22:55:00,
2013-02-22 17:00:00,41.3,35.6,29.88,WSW,255,4.0,9.0,80,0.01,,---,0.02,VWS V14.01,2013-02-22 23:00:00,
2013-02-22 17:05:00,41.2,35.5,29.88,WNW,292,2.0,6.0,80,0.00,,---,0.02,VWS V14.01,2013-02-22 23:05:00,
2013-02-22 17:10:00,41.2,35.5,29.88,SW,224,5.0,7.0,80,0.00,,---,0.02,VWS V14.01,2013-02-22 23:10:00,
2013-02-22 17:15:00,41.1,35.4,29.88,West,260,2.0,7.0,80,0.00,,---,0.02,VWS V14.01,2013-02-22 23:15:00,
2013-02-22 17:20:00,41.1,35.4,29.89,WSW,257,3.0,7.0,80,0.00,,---,0.02,VWS V14.01,2013-02-22 23:20:00,
2013-02-22 17:25:00,41.0,35.3,29.89,West,259,2.0,7.0,80,0.00,,---,0.02,VWS V14.01,2013-02-22 23:25:00,
2013-02-22 17:30:00,41.0,35.6,29.89,West,269,2.0,7.0,81,0.00,,---,0.02,VWS V14.01,2013-02-22 23:30:00,
2013-02-22 17:35:00,40.9,35.2,29.89,SW,229,0.0,4.0,80,0.00,,---,0.02,VWS V14.01,2013-02-22 23:35:00,
2013-02-22 17:40:00,40.8,35.1,29.89,WSW,251,0.0,5.0,80,0.00,,---,0.02,VWS V14.01,2013-02-22 23:40:00,
2013-02-22 17:45:00,40.8,35.4,29.89,West,263,3.0,5.0,81,0.00,,---,0.02,VWS V14.01,2013-02-22 23:45:00,
2013-02-22 17:50:00,40.8,35.4,29.90,WSW,247,4.0,5.0,81,0.00,,---,0.02,VWS V14.01,2013-02-22 23:50:00,
2013-02-22 17:55:00,40.7,35.3,29.90,SW,214,0.0,5.0,81,0.00,,---,0.02,VWS V14.01,2013-02-22 23:55:00,
2013-02-22 18:00:00,40.7,35.3,29.90,WSW,257,1.0,5.0,81,0.00,,---,0.02,VWS V14.01,2013-02-23 00:00:00,
2013-02-22 18:05:00,40.7,35.3,29.90,SW,215,2.0,4.0,81,0.00,,---,0.02,VWS V14.01,2013-02-23 00:05:00,
2013-02-22 18:10:00,40.6,35.2,29.90,SW,215,1.0,4.0,81,0.00,,---,0.02,VWS V14.01,2013-02-23 00:10:00,
2013-02-22 18:15:00,40.6,35.2,29.90,SW,227,5.0,5.0,81,0.00,,---,0.02,VWS V14.01,2013-02-23 00:15:00,
2013-02-22 18:20:00,40.6,35.2,29.91,SW,221,0.0,5.0,81,0.00,,---,0.02,VWS V14.01,2013-02-23 00:20:00,
2013-02-22 18:25:00,40.6,35.2,29.91,SW,231,0.0,5.0,81,0.00,,---,0.02,VWS V14.01,2013-02-23 00:25:00,
2013-02-22 18:30:00,40.5,35.5,29.91,SSW,203,0.0,5.0,82,0.00,,---,0.02,VWS V14.01,2013-02-23 00:30:00,
2013-02-22 18:35:00,40.4,35.3,29.91,SSW,204,1.0,3.0,82,0.00,,---,0.02,VWS V14.01,2013-02-23 00:35:00,
2013-02-22 18:40:00,40.4,35.3,29.91,SSW,204,0.0,3.0,82,0.00,,---,0.02,VWS V14.01,2013-02-23 00:40:00,
2013-02-22 18:45:00,40.4,35.3,29.91,SSW,213,0.0,3.0,82,0.00,,---,0.02,VWS V14.01,2013-02-23 00:45:00,
2013-02-22 18:50:00,40.3,35.2,29.91,SSW,213,1.0,3.0,82,0.00,,---,0.02,VWS V14.01,2013-02-23 00:50:00,
2013-02-22 18:55:00,40.3,35.2,29.91,SSW,213,0.0,3.0,82,0.00,,---,0.02,VWS V14.01,2013-02-23 00:55:00,
2013-02-22 19:00:00,40.3,35.2,29.91,SSW,213,0.0,3.0,82,0.00,,---,0.02,VWS V14.01,2013-02-23 01:00:00,
2013-02-22 19:05:00,40.3,35.2,29.91,SSW,213,0.0,3.0,82,0.00,,---,0.02,VWS V14.01,2013-02-23 01:05:00,
2013-02-22 19:10:00,40.2,35.5,29.91,SSW,213,1.0,3.0,83,0.00,,---,0.02,VWS V14.01,2013-02-23 01:10:00,
2013-02-22 19:15:00,40.1,35.4,29.91,SW,214,0.0,3.0,83,0.00,,---,0.02,VWS V14.01,2013-02-23 01:15:00,
2013-02-22 19:20:00,40.1,35.4,29.91,SW,223,0.0,3.0,83,0.00,,---,0.02,VWS V14.01,2013-02-23 01:20:00,
2013-02-22 19:25:00,40.0,35.3,29.91,SW,223,0.0,3.0,83,0.00,,---,0.02,VWS V14.01,2013-02-23 01:25:00,
2013-02-22 19:30:00,40.0,35.3,29.91,SW,223,1.0,3.0,83,0.00,,---,0.02,VWS V14.01,2013-02-23 01:30:00,
2013-02-22 19:35:00,39.9,35.2,29.92,South,177,0.0,1.0,83,0.00,,---,0.02,VWS V14.01,2013-02-23 01:35:00,
2013-02-22 19:40:00,39.8,35.1,29.92,South,179,0.0,2.0,83,0.00,,---,0.02,VWS V14.01,2013-02-23 01:40:00,
2013-02-22 19:45:00,39.7,35.0,29.92,SSW,211,0.0,3.0,83,0.00,,---,0.02,VWS V14.01,2013-02-23 01:45:00,
2013-02-22 19:50:00,39.7,35.0,29.93,SW,225,2.0,5.0,83,0.00,,---,0.02,VWS V14.01,2013-02-23 01:50:00,
2013-02-22 19:55:00,39.7,35.0,29.93,SW,224,2.0,5.0,83,0.00,,---,0.02,VWS V14.01,2013-02-23 01:55:00,
2013-02-22 20:00:00,39.7,35.0,29.93,SW,231,2.0,5.0,83,0.00,,---,0.02,VWS V14.01,2013-02-23 02:00:00,
2013-02-22 20:05:00,39.6,34.9,29.93,SW,232,2.0,3.0,83,0.00,,---,0.02,VWS V14.01,2013-02-23 02:05:00,
2013-02-22 20:10:00,39.6,34.9,29.93,SW,234,2.0,4.0,83,0.00,,---,0.02,VWS V14.01,2013-02-23 02:10:00,
2013-02-22 20:15:00,39.5,34.8,29.93,SW,234,0.0,4.0,83,0.00,,---,0.02,VWS V14.01,2013-02-23 02:15:00,
2013-02-22 20:20:00,39.5,35.1,29.93,SW,234,0.0,4.0,84,0.00,,---,0.02,VWS V14.01,2013-02-23 02:20:00,
2013-02-22 20:25:00,39.5,35.1,29.93,SW,234,1.0,4.0,84,0.00,,---,0.02,VWS V14.01,2013-02-23 02:25:00,
2013-02-22 20:30:00,39.4,35.0,29.93,WSW,241,0.0,5.0,84,0.00,,---,0.02,VWS V14.01,2013-02-23 02:30:00,
2013-02-22 20:35:00,39.4,35.0,29.94,WSW,250,2.0,4.0,84,0.00,,---,0.02,VWS V14.01,2013-02-23 02:35:00,
2013-02-22 20:40:00,39.4,35.0,29.94,SW,225,1.0,4.0,84,0.00,,---,0.02,VWS V14.01,2013-02-23 02:40:00,
2013-02-22 20:45:00,39.4,35.0,29.94,West,269,0.0,4.0,84,0.00,,---,0.02,VWS V14.01,2013-02-23 02:45:00,
2013-02-22 20:50:00,39.3,34.9,29.93,SW,227,1.0,4.0,84,0.00,,---,0.02,VWS V14.01,2013-02-23 02:50:00,
2013-02-22 20:55:00,39.3,34.9,29.93,WSW,252,0.0,4.0,84,0.00,,---,0.02,VWS V14.01,2013-02-23 02:55:00,
2013-02-22 21:00:00,39.3,34.9,29.93,West,278,2.0,4.0,84,0.00,,---,0.02,VWS V14.01,2013-02-23 03:00:00,
2013-02-22 21:05:00,39.3,35.2,29.94,West,263,0.0,4.0,85,0.00,,---,0.02,VWS V14.01,2013-02-23 03:05:00,
2013-02-22 21:10:00,39.3,35.2,29.94,West,263,1.0,4.0,85,0.00,,---,0.02,VWS V14.01,2013-02-23 03:10:00,
2013-02-22 21:15:00,39.3,35.2,29.94,West,263,1.0,4.0,85,0.00,,---,0.02,VWS V14.01,2013-02-23 03:15:00,
2013-02-22 21:20:00,39.2,35.1,29.94,West,267,3.0,4.0,85,0.00,,---,0.02,VWS V14.01,2013-02-23 03:20:00,
2013-02-22 21:25:00,39.1,35.0,29.94,WNW,295,1.0,5.0,85,0.00,,---,0.02,VWS V14.01,2013-02-23 03:25:00,
2013-02-22 21:30:00,38.9,34.8,29.94,WNW,288,1.0,5.0,85,0.00,,---,0.02,VWS V14.01,2013-02-23 03:30:00,
2013-02-22 21:35:00,38.8,35.0,29.93,West,280,2.0,5.0,86,0.00,,---,0.02,VWS V14.01,2013-02-23 03:35:00,
2013-02-22 21:40:00,38.7,34.9,29.93,West,279,1.0,5.0,86,0.00,,---,0.02,VWS V14.01,2013-02-23 03:40:00,
2013-02-22 21:45:00,38.6,34.8,29.93,WNW,284,2.0,5.0,86,0.00,,---,0.02,VWS V14.01,2013-02-23 03:45:00,
2013-02-22 21:50:00,38.6,34.8,29.94,WNW,292,3.0,6.0,86,0.00,,---,0.02,VWS V14.01,2013-02-23 03:50:00,
2013-02-22 21:55:00,38.4,34.6,29.94,West,261,6.0,9.0,86,0.00,,---,0.02,VWS V14.01,2013-02-23 03:55:00,
2013-02-22 22:00:00,38.4,34.9,29.94,NNW,333,3.0,10.0,87,0.00,,---,0.02,VWS V14.01,2013-02-23 04:00:00,
2013-02-22 22:05:00,38.0,33.9,29.93,West,279,4.0,11.0,85,0.00,,---,0.02,VWS V14.01,2013-02-23 04:05:00,
2013-02-22 22:10:00,37.5,32.8,29.93,West,279,3.0,13.0,83,0.00,,---,0.02,VWS V14.01,2013-02-23 04:10:00,
2013-02-22 22:15:00,37.0,32.0,29.93,WNW,292,7.0,13.0,82,0.00,,---,0.02,VWS V14.01,2013-02-23 04:15:00,
2013-02-22 22:20:00,36.6,31.6,29.93,NNW,330,1.0,13.0,82,0.00,,---,0.02,VWS V14.01,2013-02-23 04:20:00,
2013-02-22 22:25:00,36.4,31.4,29.93,NNW,348,3.0,13.0,82,0.00,,---,0.02,VWS V14.01,2013-02-23 04:25:00,
2013-02-22 22:30:00,36.1,30.8,29.93,NW,313,4.0,13.0,81,0.00,,---,0.02,VWS V14.01,2013-02-23 04:30:00,
2013-02-22 22:35:00,35.7,30.5,29.94,WNW,302,2.0,9.0,81,0.00,,---,0.02,VWS V14.01,2013-02-23 04:35:00,
2013-02-22 22:40:00,35.5,30.3,29.94,NNW,344,3.0,9.0,81,0.00,,---,0.02,VWS V14.01,2013-02-23 04:40:00,
2013-02-22 22:45:00,35.2,29.7,29.94,West,272,0.0,9.0,80,0.00,,---,0.02,VWS V14.01,2013-02-23 04:45:00,
2013-02-22 22:50:00,34.9,29.4,29.94,NW,308,1.0,9.0,80,0.00,,---,0.02,VWS V14.01,2013-02-23 04:50:00,
2013-02-22 22:55:00,34.7,28.9,29.94,NW,324,0.0,9.0,79,0.00,,---,0.02,VWS V14.01,2013-02-23 04:55:00,
2013-02-22 23:00:00,34.6,29.1,29.94,NW,324,0.0,9.0,80,0.00,,---,0.02,VWS V14.01,2013-02-23 05:00:00,
2013-02-22 23:05:00,34.4,28.9,29.94,North,350,6.0,6.0,80,0.00,,---,0.02,VWS V14.01,2013-02-23 05:05:00,
2013-02-22 23:10:00,34.4,28.9,29.94,NNW,337,4.0,7.0,80,0.00,,---,0.02,VWS V14.01,2013-02-23 05:10:00,
2013-02-22 23:15:00,34.4,28.9,29.94,WNW,290,1.0,7.0,80,0.00,,---,0.02,VWS V14.01,2013-02-23 05:15:00,
2013-02-22 23:20:00,34.4,28.9,29.94,WNW,300,4.0,7.0,80,0.00,,---,0.02,VWS V14.01,2013-02-23 05:20:00,
2013-02-22 23:25:00,34.4,28.9,29.94,NW,307,4.0,7.0,80,0.00,,---,0.02,VWS V14.01,2013-02-23 05:25:00,
2013-02-22 23:30:00,34.2,28.4,29.94,NNW,327,3.0,7.0,79,0.00,,---,0.02,VWS V14.01,2013-02-23 05:30:00,
2013-02-22 23:35:00,34.0,27.9,29.94,NNW,347,2.0,5.0,78,0.00,,---,0.02,VWS V14.01,2013-02-23 05:35:00,
2013-02-22 23:40:00,33.9,27.8,29.94,NW,314,2.0,5.0,78,0.00,,---,0.02,VWS V14.01,2013-02-23 05:40:00,
2013-02-22 23:45:00,33.7,27.3,29.94,North,355,0.0,5.0,77,0.00,,---,0.02,VWS V14.01,2013-02-23 05:45:00,
2013-02-22 23:50:00,33.7,27.6,29.95,WNW,299,0.0,7.0,78,0.00,,---,0.02,VWS V14.01,2013-02-23 05:50:00,
2013-02-22 23:55:00,33.6,27.5,29.95,WNW,292,0.0,7.0,78,0.00,,---,0.02,VWS V14.01,2013-02-23 05:55:00,